Terminal Aerodrome Forecast
Issued by NWS Tulsa, OK

Home | Current Version | Previous Version | Text Only | Print | Product List | Glossary On
Versions: 1 2 3 4 5 6 7 8 9 10 11 12 13 14 15 16 17 18 19 20 21 22 23 24 25 26 27 28 29 30 31 32
000
FTPQ31 PGUM 041539 RRE
TAFTSA
TAF
PTSA 041539Z 0416/0512 28012KT P6SM VCSH SCT016 BKN140=

USA.gov is the U.S. government's official web portal to all federal, state and local government web resources and services.